Regional Weather Roundup
Issued by NWS Bismarck, ND

Home | Current Version | Previous Version | Text Only | Print | Product List | Glossary On
Versions: 1 2 3 4 5 6 7 8 9 10 11 12 13 14 15 16 17 18 19 20 21 22 23 24 25 26 27 28 29 30 31 32 33 34 35 36 37 38 39 40 41 42 43 44 45 46 47 48 49 50
000
ASUS43 KBIS 060220
RWRBIS

NWR BROADCAST TEXT
NATIONAL WEATHER SERVICE BISMARCK ND
900 PM CDT TUE MAY 05 2015

NOTE: "FAIR" INDICATES FEW OR NO CLOUDS BELOW 12,000 FEET WITH NO
SIGNIFICANT WEATHER AND/OR OBSTRUCTIONS TO VISIBILITY.


CITY           SKY/WX    TMP DP  RH WIND       PRES   REMARKS
WILLISTON      CLEAR     71  49  45 SE15G25   29.76R
MINOT          PTCLDY    69  34  27 SE8       29.82R
MINOT AFB      PTCLDY    69  38  31 S10       29.80S
BISMARCK       PTCLDY    70  47  43 S13       29.85R
DICKINSON      PTCLDY    63  49  60 SE18      29.79S
GARRISON         N/A     66  42  41 SE9       29.82S
HETTINGER ARPT CLOUDY    63  51  65 SE15G23   29.82S
JAMESTOWN      MOCLDY    70  51  51 SE17      29.90S
BEACH          FAIR      59  50  72 SE15      29.78R
CARRINGTON     FAIR      68  41  37 SE15G23   29.90S
CROSBY         FAIR      68  48  49 SE12      29.75R
HARVEY         FAIR      68  39  34 SE10      29.87S
HAZEN          FAIR      66  45  45 SE9       29.82S
LINTON         MOCLDY    68  54  60 S17G23    29.86S
MANDAN         FAIR      66  46  48 S13       29.86R
OAKES            N/A     68  55  64 SE18G24   29.93S
STANLEY        FAIR      64  48  55 S10       29.81R
TIOGA          FAIR      64  46  52 S14G20    29.82R
WATFORD CITY   FAIR      68  48  49 S10       29.76R
$$

CITY           SKY/WX    TMP DP  RH WIND       PRES   REMARKS
GRAND FORKS    PTCLDY    71  47  42 S13       29.94R
GRAND FORKS AF PTCLDY    72  48  43 S17       29.94R
DEVILS LAKE    PTCLDY    63  37  39 SE6       29.90S
FARGO          PTCLDY    70  53  54 SE21G30   29.97R
CANDO          MOCLDY    64  32  29 SE9       29.90S
CAVALIER       FAIR      70  25  18 SE7       29.94S
GRAFTON        FAIR      68  28  22 SE13      29.95R
GWINNER        PTCLDY    66  54  63 SE18      29.97R
LANGDON        MOCLDY    63  23  22 SE10      29.94S
WALHALLA       FAIR      66  25  20 SE8       29.94S
$$

CITY           SKY/WX    TMP DP  RH WIND       PRES   REMARKS
ABERDEEN       CLOUDY    66  55  67 S13       29.93S
MOBRIDGE       CLOUDY    63  52  67 SE13      29.85S
BUFFALO          N/A     62  49  62 SE18      29.72S
RAPID CITY     CLOUDY    61  50  67 S15       29.83S
GLASGOW        PTCLDY    70  43  37 E7        29.61S
SIDNEY         PTCLDY    66  48  52 SE15      29.75R
WOLF POINT     PTCLDY    77  48  35 SE10G22   29.65R
GLENDIVE       MOCLDY    66  50  55 SE15G21   29.73S
MILES CITY     MOCLDY    73  48  41 SE15      29.65R
BAKER          MOCLDY    63  49  60 SE18      29.75S
$$

CITY           SKY/WX    TMP DP  RH WIND       PRES   REMARKS
BILLINGS       CLOUDY    64  44  48 NW20G26   29.66R
GREAT FALLS    CLOUDY    56  46  69 E10       29.76R
REGINA         CLOUDY    70  41  35 SE13      29.70S
ESTEVAN        MOCLDY    68  46  45 SE14      29.76S
$$




USA.gov is the U.S. government's official web portal to all federal, state and local government web resources and services.